[[{"header":{"parameterUnit":"m.s-1","parameterCategory":1,"la1":30.2991,"la2":30.254,"lo1":-89.0895,"lo2":-89.0444,"dy":0.0017,"dx":0.0017,"nx":28,"ny":28,"refTime":"2023-08-03T21:00:00:Z","depth":0,"parameterNumber":2,"parameterNumberName":"U-component_of_WINDS"},"data":[0,0,0,0,0,0,0,0,0,0,0,0,0,0,0,0,0,0,0,0,0,0,0,0,0,0,0,0,0,0,0,0,0,0,0,0,0,0,0,0,0,0,0,0,0,0,0,0,0,0,0,0,0,0,0,0,0,0,1.3927,1.3928,0,1.3985,1.3986,1.3986,1.4001,1.4001,1.4,1.4,1.4057,1.4059,1.4061,0,0,0,0,0,0,0,0,0,0,0,0,0,1.3826,1.3828,1.3927,1.3928,1.3929,1.3985,1.3986,1.3986,1.4001,1.4001,1.4,1.4,1.4057,1.4059,1.4061,0,0,0,0,0,0,0,0,0,0,0,0,0,1.3875,1.3828,1.3927,1.3943,1.3945,1.3985,1.3986,1.3987,1.4001,1.4001,1.4,1.3999,1.4056,1.4059,1.4061,1.409,0,0,1.407,1.4071,0,0,0,0,0,0,0,0,1.3872,1.3879,1.394,1.3942,1.3944,1.3985,1.3971,1.4021,1.4001,1.398,1.4,1.3999,1.4034,1.4038,1.405,1.4092,1.4095,1.407,1.4072,1.4073,1.4074,0,0,0,0,0,0,0,1.3869,1.3877,1.395,1.394,1.3943,1.3946,1.3952,1.3981,1.4009,1.3981,1.3983,1.3989,1.4035,1.4047,1.4052,1.4096,1.407,1.4073,1.4074,1.4075,1.4161,1.4162,0,0,0,0,0,0,1.3863,1.3874,1.3948,1.3952,1.3906,1.3948,1.3955,1.3972,1.4009,1.4014,1.399,1.399,1.4043,1.4048,1.4054,1.4088,1.4073,1.4076,1.4077,1.4161,1.4162,1.4162,0,0,0,0,0,0,1.3861,1.387,1.3946,1.3913,1.3923,1.395,1.397,1.3974,1.3987,1.4015,1.402,1.3998,1.4043,1.405,1.408,1.409,1.4077,1.408,1.416,1.4161,1.4162,1.4157,0,0,0,0,0,0,1.3858,1.3869,1.3881,1.3913,1.3925,1.3972,1.397,1.3975,1.3992,1.3992,1.4024,1.4029,1.4043,1.4076,1.4083,1.4094,1.4082,1.4159,1.4161,1.4162,1.4156,1.4157,1.4158,0,0,0,0,0,1.3854,1.3877,1.3881,1.389,1.394,1.3973,1.3979,1.3996,1.3993,1.4004,1.4022,1.4028,1.4088,1.4079,1.4087,1.4099,1.4159,1.416,1.4162,1.4156,1.4157,1.4158,0,0,0,0,0,0,1.3845,1.3882,1.3887,1.3921,1.3944,1.3975,1.399,1.3997,1.4021,1.402,1.4039,1.4046,1.4075,1.409,1.4079,1.4127,1.4123,1.4126,1.4116,1.4118,1.4119,1.4114,1.4084,0,0,0,0,0,1.3847,1.3871,1.3902,1.3928,1.394,1.3963,1.3978,1.3988,1.4013,1.4022,1.4042,1.4065,1.4089,1.4104,1.4128,1.4158,1.4165,1.417,1.4171,1.4172,1.4174,1.419,1.4192,1.4167,1.4167,1.4167,0,0,1.3851,1.3874,1.3888,1.3927,1.3946,1.3969,1.3971,1.3996,1.4013,1.4026,1.4056,1.4071,1.4097,1.4127,1.4142,1.4141,1.4183,1.4174,1.4174,1.4176,1.4192,1.4194,1.4196,1.4168,1.4167,1.4167,0,0,1.387,1.389,1.3914,1.3933,1.3962,1.3977,1.3982,1.4013,1.4023,1.4054,1.4063,1.4083,1.4125,1.4142,1.4157,1.4181,1.4186,1.4188,1.4194,1.4209,1.4211,1.4213,1.422,1.4222,1.419,1.419,1.419,0,1.3871,1.3908,1.3925,1.395,1.3966,1.3979,1.4002,1.4019,1.4054,1.4064,1.4062,1.4113,1.4132,1.4166,1.4171,1.4183,1.4189,1.4184,1.4209,1.4211,1.4213,1.422,1.4223,1.419,1.419,1.419,1.419,0,1.3907,1.3932,1.3948,1.3981,1.3999,1.4023,1.4043,1.4059,1.4067,1.4082,1.4112,1.4134,1.4162,1.4171,1.418,1.4206,1.4204,1.4206,1.4202,1.4215,1.4222,1.4225,1.419,1.419,1.419,1.419,0,0,1.3922,1.3964,1.3969,1.3984,1.4016,1.4035,1.4058,1.4086,1.4098,1.4121,1.4141,1.4174,1.4176,1.4192,1.4203,1.4216,1.4232,1.4216,1.4217,1.4217,1.426,1.4258,1.4261,1.4236,1.4237,1.4237,1.4257,0,1.3944,1.3988,1.4003,1.4039,1.4061,1.4072,1.4093,1.4114,1.4128,1.4148,1.4163,1.4187,1.4187,1.4197,1.4211,1.4227,1.4241,1.4226,1.4253,1.4254,1.4246,1.4265,1.4263,1.4281,1.426,1.4261,1.4261,0,1.3976,1.3999,1.4037,1.4064,1.4074,1.4093,1.4118,1.4138,1.4161,1.417,1.4188,1.4197,1.4221,1.4216,1.4249,1.4238,1.425,1.426,1.4261,1.4264,1.4258,1.4267,1.4288,1.429,1.4266,1.4266,1.4265,0,1.3981,1.4022,1.405,1.4062,1.4095,1.4107,1.4122,1.4145,1.4159,1.4181,1.4191,1.4215,1.4228,1.4247,1.4262,1.4257,1.4292,1.4289,1.4299,1.4299,1.4306,1.4305,1.4328,1.4315,1.4315,1.4315,1.4315,0,1.4004,1.4026,1.4052,1.4069,1.4094,1.4111,1.4135,1.4149,1.4169,1.4188,1.42,1.4217,1.4237,1.4256,1.4268,1.4292,1.4298,1.4305,1.4308,1.4304,1.4303,1.4312,1.4311,1.4316,1.4315,1.4315,1.4315,0,1.4014,1.4033,1.4063,1.4092,1.41,1.4116,1.4141,1.4156,1.4171,1.4194,1.4201,1.4223,1.4246,1.4263,1.4294,1.4302,1.4327,1.433,1.4319,1.432,1.4329,1.4328,1.4358,1.4362,1.4347,1.4347,1.4347,0,1.4027,1.4044,1.4075,1.4089,1.4103,1.4125,1.414,1.4157,1.4172,1.4199,1.4212,1.4236,1.4256,1.4293,1.4311,1.4333,1.4337,1.4346,1.434,1.4335,1.4336,1.4334,1.4336,1.4346,1.4346,1.4347,1.4347,0,1.4047,1.4056,1.4078,1.4102,1.412,1.414,1.416,1.4171,1.4191,1.4208,1.4232,1.4247,1.4278,1.4301,1.4325,1.4339,1.4346,1.4348,1.4352,1.4347,1.434,1.4343,1.432,1.4347,1.4347,1.4347,1.4347,1.4347,1.4059,1.4074,1.4098,1.4121,1.4138,1.4157,1.4173,1.4189,1.4209,1.4236,1.4244,1.4269,1.429,1.4324,1.4338,1.4356,1.4356,1.4361,1.4362,1.4363,1.4362,1.4337,1.4361,1.4361,1.4361,1.4361,1.4361,0,1.4079,1.4094,1.4116,1.4144,1.4162,1.4167,1.4189,1.4204,1.4225,1.4245,1.4265,1.4291,1.4314,1.4333,1.4356,1.4367,1.4371,1.4373,1.4372,1.4375,1.4362,1.4356,1.4369,1.4369,1.4369,1.4369,1.4369,1.4369,1.4091,1.4117,1.4127,1.4161,1.4176,1.4201,1.4213,1.4229,1.4245,1.4275,1.4293,1.4306,1.4326,1.435,1.437,1.4375,1.4383,1.4384,1.4389,1.4377,1.4376,1.4375,1.4369,1.4385,1.4385,1.4401,1.4401,1.4401]},{"header":{"parameterUnit":"m.s-1","parameterCategory":1,"la1":30.2991,"la2":30.254,"lo1":-89.0895,"lo2":-89.0444,"dy":0.0017,"dx":0.0017,"nx":28,"ny":28,"refTime":"2023-08-03T21:00:00:Z","depth":0,"parameterNumber":3,"parameterNumberName":"V-component_of_WINDS"},"data":[0,0,0,0,0,0,0,0,0,0,0,0,0,0,0,0,0,0,0,0,0,0,0,0,0,0,0,0,0,0,0,0,0,0,0,0,0,0,0,0,0,0,0,0,0,0,0,0,0,0,0,0,0,0,0,0,0,0,5.1091,5.1091,0,5.108,5.1079,5.1079,5.0998,5.0996,5.0994,5.0992,5.0981,5.0983,5.0984,0,0,0,0,0,0,0,0,0,0,0,0,0,5.1043,5.1044,5.1091,5.1091,5.1091,5.108,5.1079,5.1079,5.0998,5.0996,5.0993,5.0991,5.0981,5.0982,5.0984,0,0,0,0,0,0,0,0,0,0,0,0,0,5.1051,5.1045,5.1091,5.1049,5.1045,5.108,5.1079,5.1079,5.0999,5.0996,5.0993,5.099,5.098,5.0982,5.0985,5.1059,0,0,5.0992,5.0993,0,0,0,0,0,0,0,0,5.1051,5.1053,5.1055,5.1052,5.1048,5.1037,5.1058,5.1072,5.1,5.1016,5.0992,5.0989,5.1002,5.1003,5.1007,5.1058,5.1058,5.0992,5.0993,5.0994,5.0995,0,0,0,0,0,0,0,5.105,5.1053,5.1086,5.1055,5.1051,5.1031,5.1029,5.1061,5.1026,5.1015,5.1009,5.1009,5.0999,5.1005,5.1006,5.1058,5.0992,5.0994,5.0995,5.0996,5.1167,5.117,0,0,0,0,0,0,5.1055,5.1053,5.1087,5.1086,5.1042,5.1034,5.1032,5.1044,5.1026,5.102,5.1011,5.1005,5.1002,5.1003,5.1005,5.1089,5.0994,5.0996,5.0998,5.1164,5.1168,5.1171,0,0,0,0,0,0,5.1055,5.1059,5.1087,5.1068,5.107,5.1038,5.1052,5.1045,5.105,5.1023,5.1016,5.1023,5.1,5.1002,5.1045,5.1088,5.0998,5.1,5.116,5.1165,5.117,5.1259,0,0,0,0,0,0,5.1054,5.106,5.1087,5.1069,5.1071,5.1128,5.1055,5.1047,5.1054,5.1046,5.1032,5.1027,5.0998,5.1042,5.1048,5.1089,5.1001,5.1156,5.1163,5.1168,5.1252,5.1266,5.1278,0,0,0,0,0,5.1052,5.1114,5.1089,5.1094,5.1105,5.1131,5.1132,5.1097,5.1058,5.1085,5.1068,5.1027,5.1083,5.1048,5.1053,5.1096,5.1154,5.1161,5.1168,5.1246,5.1263,5.1278,0,0,0,0,0,0,5.1138,5.111,5.1083,5.114,5.1138,5.1117,5.115,5.1116,5.1125,5.1117,5.1074,5.1071,5.1121,5.1113,5.1074,5.1166,5.1111,5.112,5.1169,5.1185,5.1198,5.1198,5.1003,0,0,0,0,0,5.1164,5.1186,5.1161,5.1214,5.1214,5.1183,5.1192,5.1165,5.1162,5.1161,5.1146,5.1144,5.1161,5.1173,5.1187,5.1251,5.1246,5.1283,5.1296,5.1307,5.1314,5.1346,5.1361,5.1194,5.1194,5.1194,0,0,5.1217,5.1204,5.1221,5.1231,5.1226,5.125,5.1183,5.1211,5.1228,5.1165,5.1204,5.1194,5.1189,5.1243,5.1266,5.1237,5.1359,5.1316,5.1325,5.1326,5.1355,5.1371,5.1385,5.1199,5.1198,5.1198,0,0,5.1325,5.1319,5.1361,5.1357,5.1351,5.1329,5.134,5.1323,5.1314,5.1353,5.1305,5.1325,5.1356,5.1353,5.1356,5.1463,5.1426,5.1469,5.1537,5.1568,5.1581,5.1592,5.1629,5.1643,5.1477,5.1477,5.1477,0,5.1391,5.1425,5.1387,5.1418,5.1423,5.1367,5.1409,5.1407,5.1406,5.1411,5.138,5.1415,5.1408,5.146,5.1486,5.1491,5.15,5.1469,5.1582,5.1593,5.1603,5.1637,5.1652,5.1482,5.1482,5.1481,5.1481,0,5.1506,5.1531,5.1566,5.1565,5.1574,5.1611,5.1578,5.1592,5.1564,5.1546,5.1586,5.1576,5.1586,5.1597,5.1571,5.1644,5.1627,5.159,5.1534,5.1625,5.1656,5.1669,5.149,5.1488,5.1486,5.1485,0,0,5.1667,5.1644,5.1658,5.1656,5.1644,5.1662,5.1696,5.1706,5.1718,5.1719,5.1746,5.1772,5.1738,5.1741,5.1714,5.1742,5.1825,5.1701,5.1701,5.1723,5.1904,5.193,5.1946,5.1801,5.1804,5.1806,5.1904,0,5.1769,5.1825,5.1791,5.1852,5.1873,5.182,5.1849,5.1846,5.183,5.1845,5.1828,5.1847,5.1801,5.1802,5.1828,5.181,5.1861,5.1803,5.1825,5.1826,5.1825,5.1963,5.1991,5.2084,5.1916,5.1918,5.192,0,5.1895,5.1901,5.1964,5.1946,5.1954,5.1981,5.1986,5.2002,5.1997,5.1983,5.1987,5.1953,5.1985,5.1931,5.1974,5.1935,5.1942,5.1935,5.1938,5.1937,5.1877,5.1964,5.2113,5.2126,5.1939,5.1937,5.1936,0,5.2004,5.2027,5.2067,5.2067,5.2049,5.2069,5.2063,5.2054,5.2061,5.2067,5.2071,5.208,5.2085,5.2093,5.2062,5.2026,5.2108,5.2052,5.2097,5.2098,5.2115,5.2114,5.2266,5.2124,5.2123,5.2123,5.2123,0,5.212,5.216,5.2115,5.2139,5.2182,5.2144,5.2187,5.2175,5.2168,5.2189,5.2145,5.2165,5.2125,5.2141,5.2118,5.2156,5.2159,5.2148,5.2141,5.2151,5.2152,5.2154,5.2146,5.2127,5.2126,5.2125,5.2125,0,5.2247,5.2219,5.2259,5.2238,5.2234,5.2266,5.2248,5.227,5.2251,5.2278,5.2282,5.2253,5.227,5.2241,5.2256,5.224,5.2292,5.2276,5.2293,5.2288,5.2333,5.2329,5.249,5.2508,5.2357,5.2358,5.2359,0,5.2322,5.2351,5.2333,5.2344,5.2339,5.2357,5.2364,5.2328,5.2337,5.2332,5.2354,5.2368,5.2376,5.2406,5.2386,5.2396,5.2379,5.2435,5.238,5.2389,5.2377,5.2375,5.2377,5.2445,5.2447,5.2449,5.245,0,5.2457,5.2442,5.2453,5.246,5.2469,5.2473,5.2473,5.2484,5.2445,5.2458,5.2474,5.2481,5.2495,5.2508,5.2514,5.2507,5.2472,5.2468,5.2478,5.2487,5.2495,5.249,5.2322,5.2464,5.2462,5.2461,5.246,5.246,5.2559,5.2582,5.2572,5.2586,5.2582,5.2584,5.2602,5.2586,5.2599,5.2606,5.2584,5.2606,5.2599,5.2602,5.26,5.2616,5.2591,5.2607,5.2611,5.2614,5.2621,5.2495,5.2617,5.2617,5.2616,5.2616,5.2616,0,5.269,5.2681,5.2694,5.2695,5.2706,5.2673,5.2671,5.2682,5.2702,5.2698,5.2707,5.2726,5.2738,5.272,5.2729,5.2746,5.273,5.275,5.2747,5.2746,5.2643,5.2632,5.2762,5.2762,5.2762,5.2762,5.2762,5.2762,5.2759,5.2795,5.2778,5.2812,5.2803,5.2823,5.2824,5.2825,5.2822,5.2844,5.2854,5.2842,5.2832,5.2841,5.2851,5.2845,5.285,5.2875,5.2863,5.2767,5.2753,5.2739,5.2728,5.2876,5.2877,5.2964,5.2964,5.2965]}]]